CW6823 Weather Reports


time (UTC)temp
F
wind
direction
speed
knots
gust
knots
rain 1hr
in
rain 24hr
in
rain mn
in
humidity
%
barometer
mb
20260906204005 100 169 5.2 11.3 0.00 0.00 0.00 36 830.3
20260906203505 101 202 6.1 11.3 0.00 0.00 0.00 34 830.4
20260906203005 101 214 4.3 8.7 0.00 0.00 0.00 35 830.4
20260906202505 101 221 4.3 13.9 0.00 0.00 0.00 35 830.4
20260906202004 101 212 2.6 6.1 0.00 0.00 0.00 35 830.4
20260906201505 100 229 0.9 0.9 0.00 0.00 0.00 35 830.5
20260906200505 99 227 2.6 5.2 0.00 0.00 0.00 36 830.3
20260906200006 100 215 1.7 3.5 0.00 0.00 0.00 36 830.4
20260906195505 100 215 4.3 7.8 0.00 0.00 0.00 35 830.4
20260906195005 100 214 2.6 4.3 0.00 0.00 0.00 36 830.4
20260906194504 100 207 7.8 9.6 0.00 0.00 0.00 36 830.4
20260906194005 100 239 5.2 10.4 0.00 0.00 0.00 35 830.4
20260906193505 99 242 6.1 13.0 0.00 0.00 0.00 36 830.4
20260906192505 100 170 4.3 7.8 0.00 0.00 0.00 37 830.3
20260906192005 100 232 7.0 12.2 0.00 0.00 0.00 35 830.4
20260906191505 100 229 7.8 10.4 0.00 0.00 0.00 36 830.4
20260906191005 99 238 7.8 10.4 0.00 0.00 0.00 36 830.4
20260906190504 99 225 7.8 10.4 0.00 0.00 0.00 37 830.3
20260906184505 98 185 5.2 8.7 0.00 0.00 0.00 38 830.2
20260906184005 97 201 2.6 7.0 0.00 0.00 0.00 38 830.3
20260906183504 97 155 6.1 19.1 0.00 0.00 0.00 38 830.2
20260906183006 96 157 7.8 14.8 0.00 0.00 0.00 39 830.2
20260906182504 96 163 7.8 15.6 0.00 0.00 0.00 41 830.1
20260906182005 96 159 8.7 25.2 0.00 0.00 0.00 41 830.1
20260906180505 97 253 3.5 5.2 0.00 0.00 0.00 40 830.2
20260906175504 96 132 4.3 7.0 0.00 0.00 0.00 41 830.1
20260906175006 96 111 4.3 6.1 0.00 0.00 0.00 41 830.1
20260906174505 95 109 5.2 8.7 0.00 0.00 0.00 42 830.1
20260906174006 95 163 3.5 6.1 0.00 0.00 0.00 43 830.1
20260906173005 96 166 6.1 7.8 0.00 0.00 0.00 42 830.1
20260906172504 96 193 7.8 10.4 0.00 0.00 0.00 41 830.1
20260906172006 96 191 6.1 8.7 0.00 0.00 0.00 41 830.1
20260906171005 96 159 4.3 8.7 0.00 0.00 0.00 42 830.2
20260906170504 96 178 8.7 11.3 0.00 0.00 0.00 41 830.2
20260906170005 96 176 9.6 11.3 0.00 0.00 0.00 42 830.2
20260906165504 95 185 7.0 11.3 0.00 0.00 0.00 43 830.1
20260906165005 95 163 6.1 10.4 0.00 0.00 0.00 44 830.1
20260906164504 95 144 4.3 6.1 0.00 0.00 0.00 44 830.1
20260906164005 94 145 3.5 7.0 0.00 0.00 0.00 44 830.1
20260906163505 94 149 6.1 8.7 0.00 0.00 0.00 44 830.0
20260906163005 95 185 7.0 9.6 0.00 0.00 0.00 45 830.1
20260906162504 94 185 7.0 9.6 0.00 0.00 0.00 45 830.1
20260906162005 94 183 7.8 11.3 0.00 0.00 0.00 46 830.0
20260906161005 93 178 7.8 10.4 0.00 0.00 0.00 46 830.0
20260906160504 93 179 7.0 9.6 0.00 0.00 0.00 46 830.0
20260906160005 93 178 6.1 7.8 0.00 0.00 0.00 47 830.0
20260906155505 93 183 6.1 8.7 0.00 0.00 0.00 49 829.9
20260906154505 92 224 7.0 8.7 0.00 0.00 0.00 50 829.9
20260906154004 91 226 6.1 8.7 0.00 0.00 0.00 49 829.9
20260906153504 91 223 6.1 8.7 0.00 0.00 0.00 50 829.9
20260906153005 91 238 5.2 7.8 0.00 0.00 0.00 51 829.9
20260906152506 90 239 5.2 7.0 0.00 0.00 0.00 51 829.8
20260906152005 90 247 6.1 7.8 0.00 0.00 0.00 52 829.8
20260906151505 89 268 4.3 8.7 0.00 0.00 0.00 52 829.8
20260906151004 89 252 6.1 7.8 0.00 0.00 0.00 54 829.7
20260906150504 89 252 3.5 6.1 0.00 0.00 0.00 54 829.7
20260906150005 89 246 2.6 4.3 0.00 0.00 0.00 54 829.7
20260906145505 88 255 2.6 5.2 0.00 0.00 0.00 55 829.7
20260906145005 88 240 3.5 7.0 0.00 0.00 0.00 55 829.7
20260906144505 88 245 2.6 3.5 0.00 0.00 0.00 55 829.7
20260906144005 87 247 2.6 3.5 0.00 0.00 0.00 56 829.6
20260906143004 87 248 2.6 3.5 0.00 0.00 0.00 57 829.6
20260906142506 87 228 2.6 3.5 0.00 0.00 0.00 57 829.6
20260906142005 86 226 3.5 9.6 0.00 0.00 0.00 58 829.6
20260906141505 86 217 2.6 3.5 0.00 0.00 0.00 58 829.5
20260906140005 85 179 2.6 3.5 0.00 0.00 0.00 60 829.4
20260906135505 84 204 2.6 4.3 0.00 0.00 0.00 60 829.4
20260906135005 84 182 2.6 4.3 0.00 0.00 0.00 61 829.4
20260906134506 84 177 2.6 4.3 0.00 0.00 0.00 61 829.4
20260906134004 83 186 2.6 3.5 0.00 0.00 0.00 61 829.4
20260906133505 83 197 2.6 3.5 0.00 0.00 0.00 62 829.3
20260906133005 83 199 1.7 2.6 0.00 0.00 0.00 61 829.3
20260906132506 83 181 1.7 1.7 0.00 0.00 0.00 62 829.3
20260906131505 81 199 0.9 0.9 0.00 0.00 0.00 64 829.3
20260906131005 80 184 0.9 0.9 0.00 0.00 0.00 65 829.2
20260906130505 79 198 0.9 0.9 0.00 0.00 0.00 67 829.1
20260906130005 79 221 0.0 0.9 0.00 0.00 0.00 69 829.1
20260906125505 78 225 0.0 0.0 0.00 0.00 0.00 70 829.0
20260906125005 78 258 0.0 0.0 0.00 0.00 0.00 71 829.0
20260906124505 77 265 0.0 0.0 0.00 0.00 0.00 71 829.0
20260906124004 77 186 0.9 0.9 0.00 0.00 0.00 71 828.9
20260906123506 77 202 0.9 1.7 0.00 0.00 0.00 71 828.9
20260906123005 77 171 0.9 1.7 0.00 0.00 0.00 71 828.9
20260906122505 77 196 0.9 1.7 0.00 0.00 0.00 72 828.9
20260906122004 77 201 0.9 1.7 0.00 0.00 0.00 72 828.9
20260906121506 77 214 0.9 0.9 0.00 0.00 0.00 72 828.9
20260906121005 77 173 1.7 1.7 0.00 0.00 0.00 71 828.9
20260906120005 77 183 1.7 1.7 0.00 0.00 0.00 71 828.9
20260906115505 77 177 1.7 2.6 0.00 0.00 0.00 71 828.9
20260906115004 77 202 1.7 1.7 0.00 0.00 0.00 71 828.9
20260906114505 77 174 1.7 1.7 0.00 0.00 0.00 71 828.9
20260906113505 77 226 0.9 1.7 0.00 0.00 0.00 71 828.9
20260906113004 77 182 1.7 1.7 0.00 0.00 0.00 70 828.9
20260906112505 77 199 1.7 1.7 0.00 0.00 0.00 70 828.9
20260906112004 77 177 0.9 2.6 0.00 0.00 0.00 70 828.9
20260906111004 78 164 1.7 1.7 0.00 0.00 0.00 70 829.0
20260906110505 78 165 2.6 2.6 0.00 0.00 0.00 70 829.0
20260906110004 78 200 1.7 1.7 0.00 0.00 0.00 70 829.0
20260906105505 78 160 2.6 2.6 0.00 0.00 0.00 70 829.0
20260906105005 78 174 1.7 2.6 0.00 0.00 0.00 70 829.0
20260906104505 78 169 1.7 1.7 0.00 0.00 0.00 70 829.0
20260906104004 78 163 1.7 1.7 0.00 0.00 0.00 69 829.0
20260906103505 78 184 2.6 3.5 0.00 0.00 0.00 69 829.0
20260906102505 78 172 2.6 2.6 0.00 0.00 0.00 68 829.0
20260906102004 78 219 1.7 2.6 0.00 0.00 0.00 68 829.0
20260906101506 78 170 1.7 2.6 0.00 0.00 0.00 68 829.0
20260906101004 78 171 1.7 1.7 0.00 0.00 0.00 69 829.0
20260906100505 78 201 1.7 2.6 0.00 0.00 0.00 69 829.0
20260906095505 79 204 0.9 1.7 0.00 0.00 0.00 67 829.0
20260906095004 79 214 1.7 1.7 0.00 0.00 0.00 67 829.0
20260906094505 79 178 0.9 1.7 0.00 0.00 0.00 66 829.0
20260906094005 79 186 0.9 1.7 0.00 0.00 0.00 66 829.0
20260906093505 79 187 0.9 1.7 0.00 0.00 0.00 66 829.1
20260906093004 79 175 2.6 3.5 0.00 0.00 0.00 66 829.0
20260906092004 80 174 1.7 1.7 0.00 0.00 0.00 65 829.1
20260906091506 80 170 2.6 2.6 0.00 0.00 0.00 65 829.1
20260906091004 80 164 2.6 2.6 0.00 0.00 0.00 64 829.1
20260906090505 80 170 2.6 2.6 0.00 0.00 0.00 64 829.1
20260906090005 80 182 0.9 1.7 0.00 0.00 0.00 64 829.1
20260906085505 79 165 1.7 2.6 0.00 0.00 0.00 64 829.1
20260906085004 79 196 1.7 1.7 0.00 0.00 0.00 65 829.1
20260906084505 79 166 1.7 1.7 0.00 0.00 0.00 65 829.0
20260906084005 79 179 0.9 0.9 0.00 0.00 0.00 66 829.0
20260906083005 78 165 1.7 2.6 0.00 0.00 0.00 67 829.0
20260906082506 78 225 1.7 1.7 0.00 0.00 0.00 66 829.0
20260906082005 78 199 0.9 1.7 0.00 0.00 0.00 67 829.0
20260906081505 78 200 0.9 1.7 0.00 0.00 0.00 67 829.0
20260906081004 77 155 1.7 2.6 0.00 0.00 0.00 68 828.9
20260906080506 77 319 0.0 0.0 0.00 0.00 0.00 68 828.9
20260906080004 77 177 0.9 1.7 0.00 0.00 0.00 69 828.9
20260906075505 78 157 0.9 1.7 0.00 0.00 0.00 68 828.9
20260906075005 78 152 0.9 0.9 0.00 0.00 0.00 68 829.0
20260906074506 79 0 0.0 0.0 0.00 0.00 0.00 67 829.0
20260906073505 80 66 0.0 0.0 0.00 0.00 0.00 65 829.0
20260906072505 80 158 2.6 2.6 0.00 0.00 0.00 62 829.1
20260906072005 80 171 1.7 1.7 0.00 0.00 0.00 61 829.1
20260906071506 81 167 2.6 2.6 0.00 0.00 0.00 61 829.1
20260906071005 81 182 1.7 2.6 0.00 0.00 0.00 61 829.1
20260906065505 81 164 3.5 4.3 0.00 0.00 0.00 59 829.2
20260906065004 82 190 1.7 2.6 0.00 0.00 0.00 59 829.2
20260906064506 82 173 2.6 2.6 0.00 0.00 0.00 59 829.2
20260906064005 82 184 2.6 3.5 0.00 0.00 0.00 59 829.2
20260906063505 82 197 1.7 2.6 0.00 0.00 0.00 59 829.2
20260906063004 82 183 1.7 1.7 0.00 0.00 0.00 58 829.2
20260906062505 82 184 1.7 1.7 0.00 0.00 0.00 58 829.2
20260906062004 82 201 1.7 1.7 0.00 0.00 0.00 58 829.2
20260906061506 82 208 1.7 1.7 0.00 0.00 0.00 57 829.2
20260906061004 83 195 1.7 2.6 0.00 0.00 0.00 57 829.2
20260906060506 83 196 1.7 2.6 0.00 0.00 0.00 57 829.2
20260906060004 83 194 1.7 2.6 0.00 0.00 0.00 57 829.3
20260906055505 83 190 1.7 2.6 0.00 0.00 0.00 57 829.3
20260906054505 83 209 1.7 1.7 0.00 0.00 0.00 56 829.3
20260906054004 83 206 1.7 2.6 0.00 0.00 0.00 55 829.3
20260906053506 83 197 1.7 1.7 0.00 0.00 0.00 55 829.3
20260906053004 83 222 1.7 1.7 0.00 0.00 0.00 55 829.3
20260906052505 83 209 1.7 2.6 0.00 0.00 0.00 55 829.3
20260906052004 84 202 1.7 2.6 0.00 0.00 0.00 55 829.3
20260906051505 84 184 2.6 3.5 0.00 0.00 0.00 55 829.3
20260906051004 84 211 1.7 1.7 0.00 0.00 0.00 55 829.3
20260906050505 84 194 2.6 3.5 0.00 0.00 0.00 55 829.3
20260906050010 84 193 1.7 2.6 0.00 0.00 0.00 55 829.3
20260906045505 84 184 2.6 2.6 0.00 0.00 0.00 55 829.3
20260906045004 84 174 2.6 3.5 0.00 0.00 0.00 55 829.3
20260906044505 84 195 1.7 1.7 0.00 0.00 0.00 55 829.3
20260906044004 84 200 1.7 1.7 0.00 0.00 0.00 54 829.3
20260906043004 84 206 0.9 1.7 0.00 0.00 0.00 54 829.4
20260906042504 85 196 0.9 1.7 0.00 0.00 0.00 54 829.4
20260906042004 85 190 1.7 1.7 0.00 0.00 0.00 54 829.4
20260906040506 85 192 1.7 2.6 0.00 0.00 0.00 52 829.4
20260906040005 86 198 0.9 1.7 0.00 0.00 0.00 52 829.4
20260906035505 86 198 1.7 2.6 0.00 0.00 0.00 52 829.4
20260906035005 86 199 0.9 1.7 0.00 0.00 0.00 51 829.5
20260906034505 86 195 1.7 2.6 0.00 0.00 0.00 51 829.5
20260906034005 86 200 1.7 2.6 0.00 0.00 0.00 51 829.5
20260906033504 86 202 1.7 2.6 0.00 0.00 0.00 51 829.5
20260906033005 86 199 1.7 3.5 0.00 0.00 0.00 51 829.5
20260906032504 86 192 1.7 1.7 0.00 0.00 0.00 51 829.5
20260906032005 87 195 0.9 1.7 0.00 0.00 0.00 51 829.5
20260906031505 87 198 1.7 1.7 0.00 0.00 0.00 50 829.5
20260906031005 87 206 0.9 1.7 0.00 0.00 0.00 50 829.5
20260906030504 87 196 1.7 1.7 0.00 0.00 0.00 49 829.5
20260906030005 87 184 1.7 2.6 0.00 0.00 0.00 49 829.5
20260906025505 87 179 2.6 3.5 0.00 0.00 0.00 49 829.6
20260906025006 87 179 2.6 3.5 0.00 0.00 0.00 49 829.5
20260906024005 87 186 1.7 3.5 0.00 0.00 0.00 50 829.5
20260906023505 87 200 0.9 2.6 0.00 0.00 0.00 49 829.5
20260906023006 87 181 2.6 3.5 0.00 0.00 0.00 48 829.5
20260906022505 88 177 2.6 3.5 0.00 0.00 0.00 48 829.6
20260906021504 88 186 1.7 3.5 0.00 0.00 0.00 48 829.6
20260906020504 88 207 0.9 1.7 0.00 0.00 0.00 48 829.6
20260906020005 88 226 0.9 2.6 0.00 0.00 0.00 48 829.6
20260906015005 88 245 2.6 4.3 0.00 0.00 0.00 47 829.6
20260906014505 89 228 1.7 2.6 0.00 0.00 0.00 48 829.6
20260906014005 89 256 0.9 4.3 0.00 0.00 0.00 48 829.6
20260906013504 89 242 1.7 2.6 0.00 0.00 0.00 47 829.6
20260906013005 90 218 2.6 4.3 0.00 0.00 0.00 47 829.7
20260906012504 90 213 2.6 3.5 0.00 0.00 0.00 45 829.7
20260906012005 91 215 2.6 3.5 0.00 0.00 0.00 44 829.7
20260906011005 92 216 2.6 3.5 0.00 0.00 0.00 43 829.8
20260906010505 92 219 1.7 4.3 0.00 0.00 0.00 42 829.8
20260906010005 93 204 2.6 3.5 0.00 0.00 0.00 41 829.9
20260906005504 94 185 2.6 5.2 0.00 0.00 0.00 40 829.9
20260906004504 95 169 7.0 9.6 0.00 0.00 0.00 38 830.0
20260906003504 96 171 7.0 8.7 0.00 0.00 0.00 37 830.0
20260906003005 96 171 7.0 8.7 0.00 0.00 0.00 37 830.1
20260906002504 97 170 7.0 9.6 0.00 0.00 0.00 36 830.1
20260906002006 97 171 7.0 8.7 0.00 0.00 0.00 36 830.1
20260906001504 97 171 7.8 9.6 0.00 0.00 0.00 35 830.2
20260906001005 97 169 7.0 7.8 0.00 0.00 0.00 35 830.2
20260906000504 98 167 7.8 8.7 0.00 0.00 0.00 35 830.2
20260905235504 98 169 7.0 7.8 0.00 0.00 0.00 35 830.2
20260905235005 98 168 6.1 8.7 0.00 0.00 0.00 34 830.2
20260905234504 98 170 6.1 7.0 0.00 0.00 0.00 34 830.2
20260905234005 98 170 6.1 12.2 0.00 0.00 0.00 34 830.2
20260905233504 98 170 6.1 9.6 0.00 0.00 0.00 34 830.2
20260905232506 98 168 7.0 11.3 0.00 0.00 0.00 35 830.2
20260905232005 98 171 5.2 7.0 0.00 0.00 0.00 35 830.2
20260905231505 98 164 5.2 7.8 0.00 0.00 0.00 35 830.2
20260905231005 99 167 4.3 9.6 0.00 0.00 0.00 34 830.3
20260905230505 98 157 10.4 13.9 0.00 0.00 0.00 35 830.2
20260905230005 99 143 11.3 20.9 0.00 0.00 0.00 35 830.3
20260905225506 99 143 12.2 17.4 0.00 0.00 0.00 35 830.3
20260905225004 98 155 12.2 25.2 0.00 0.00 0.00 35 830.3
20260905224005 98 129 8.7 24.3 0.00 0.00 0.00 35 830.3
20260905223005 98 212 3.5 6.1 0.00 0.00 0.00 36 830.3
20260905222505 98 209 3.5 5.2 0.00 0.00 0.00 36 830.2
20260905221505 98 211 3.5 5.2 0.00 0.00 0.00 37 830.2
20260905220505 99 166 2.6 5.2 0.00 0.00 0.00 35 830.4
20260905220005 99 182 4.3 13.9 0.00 0.00 0.00 35 830.3
20260905215506 98 227 1.7 2.6 0.00 0.00 0.00 35 830.3
20260905215004 98 200 2.6 8.7 0.00 0.00 0.00 36 830.3
20260905214505 98 194 3.5 7.0 0.00 0.00 0.00 37 830.3
20260905214004 99 225 1.7 2.6 0.00 0.00 0.00 36 830.3
20260905213004 99 195 7.8 10.4 0.00 0.00 0.00 36 830.3
20260905212505 98 162 6.1 10.4 0.00 0.00 0.00 36 830.3
20260905212004 98 141 4.3 9.6 0.00 0.00 0.00 36 830.3
20260905211004 98 131 6.1 8.7 0.00 0.00 0.00 36 830.2
20260905210505 98 190 4.3 8.7 0.00 0.00 0.00 37 830.2
20260905210005 99 219 5.2 8.7 0.00 0.00 0.00 35 830.3
20260905205505 99 214 4.3 7.8 0.00 0.00 0.00 35 830.3
20260905205005 99 214 5.2 7.8 0.00 0.00 0.00 36 830.3
20260905204506 99 196 7.0 9.6 0.00 0.00 0.00 36 830.3